User: anonymous   Login
Location: Bégole
(43.1574°N, 0.3291°E)
Time: 20:09:43
(UTC+00:00)
Language:

FENGYUN 1C DEB - Orbit

View from above orbital plane
View from above orbital plane
View from above satellite
View from above satellite

Ground track
Ground track

The orbit data is extracted from the following two-line orbital elements,

1 32334U 99025CYB 24057.06456209  .00000593  00000-0  42703-3 0  9996
2 32334  99.3087  94.8237 0063312 277.6795  81.7182 14.00077501847577
Epoch (UTC): 26 February 2024 01:32:58
Eccentricity: 0.0063312
inclination: 99.3087°
perigee height: 847 km
apogee height: 939 km
right ascension of ascending node: 94.8237°
argument of perigee: 277.6795°
revolutions per day: 14.00077501
mean anomaly at epoch: 81.7182°
orbit number at epoch: 84757

The dashed part of the orbit path shows where the satellite is in the earth's shadow,  

DLR